Date String (YYYY-MM-DD hh:mm:ss) UTC,Instrument flags,Ambient pressure (hPa),Sample flow (lpm),Bypass flow (lpm),Sample temperature (°C),Ambient temperature (°C),ASC tube jacket temperature (°C),LED temperature (°C),Box temperature (°C),Sample RH (%),Span deviation,Mass concentration (μg/m³),Mass concentration (μg/m³),Mass concentration (μg/m³)
DateTimeUTC,F1_M11,P_M11,Q1_M11,Q2_M11,T1_M11,T2_M11,T3_M11,T4_M11,T5_M11,U1_M11,ZSPAN_M11,X0_M11,X2_M11,X1_M11
2023-01-27 00:00:00,,0822.9,5.02,0.00,22.0,20.5,00.0,30.9,23.7,07.8,0000.0,0001.02,0000.59,0000.42
2023-01-27 00:01:00,,0822.9,5.00,0.00,22.0,20.5,00.0,30.9,23.7,07.5,0000.0,0001.00,0000.57,0000.41
2023-01-27 00:02:00,,0823.0,4.99,0.00,22.0,20.5,00.0,30.8,23.7,07.7,0000.0,0000.99,0000.57,0000.40
2023-01-27 00:03:00,,0822.9,5.02,0.00,21.9,20.5,00.0,30.8,23.7,07.8,0000.0,0001.02,0000.57,0000.40
2023-01-27 00:04:00,,0823.0,4.99,0.00,21.9,20.4,00.0,30.8,23.7,08.2,0000.0,0001.30,0000.58,0000.39
2023-01-27 00:05:00,,0822.9,5.00,0.00,21.9,20.4,00.0,30.8,23.7,08.2,0000.0,0001.40,0000.57,0000.39
2023-01-27 00:06:00,,0822.9,5.00,0.00,21.9,20.4,00.0,30.8,23.6,08.0,0000.0,0002.30,0000.57,0000.40
2023-01-27 00:07:00,,0823.0,4.97,0.00,21.9,20.4,00.0,30.8,23.6,07.7,0000.0,0002.33,0000.55,0000.40
2023-01-27 00:08:00,,0822.9,5.00,0.00,21.9,20.3,00.0,30.8,23.6,07.9,0000.0,0002.24,0000.54,0000.39
2023-01-27 00:09:00,,0822.9,5.01,0.00,21.9,20.3,00.0,30.8,23.5,08.2,0000.0,0002.23,0000.54,0000.38
2023-01-27 00:10:00,,0823.0,4.99,0.00,21.9,20.3,00.0,30.8,23.6,08.4,0000.0,0002.68,0000.54,0000.38
2023-01-27 00:11:00,,0823.0,5.02,0.00,21.9,20.9,00.0,30.7,23.7,08.5,0000.0,0003.57,0000.54,0000.38
2023-01-27 00:12:00,,0822.9,4.99,0.00,22.0,22.0,00.0,30.7,24.0,07.9,0000.0,0003.64,0000.55,0000.39
2023-01-27 00:13:00,,0823.0,4.99,0.00,22.1,22.7,00.0,30.8,24.2,08.0,0000.0,0003.77,0000.55,0000.38
2023-01-27 00:14:00,,0823.0,5.00,0.00,22.2,22.3,00.0,30.8,24.2,08.0,0000.0,0004.73,0000.56,0000.38
2023-01-27 00:15:00,,0822.9,5.03,0.00,22.2,21.8,00.0,30.9,24.1,08.2,0000.0,0004.58,0000.57,0000.40
2023-01-27 00:16:00,,0823.0,5.01,0.00,22.1,21.4,00.0,30.9,24.0,07.9,0000.0,0004.48,0000.59,0000.40
2023-01-27 00:17:00,,0822.9,4.99,0.00,22.1,21.2,00.0,30.9,23.9,07.7,0000.0,0003.77,0000.59,0000.39
2023-01-27 00:18:00,,0823.0,5.01,0.00,22.1,21.0,00.0,30.9,23.9,08.1,0000.0,0003.60,0000.60,0000.39
2023-01-27 00:19:00,,0823.1,4.99,0.00,22.1,20.8,00.0,30.9,23.8,08.4,0000.0,0003.69,0000.64,0000.41
2023-01-27 00:20:00,,0823.1,5.02,0.00,22.1,20.8,00.0,30.9,23.8,08.1,0000.0,0004.04,0000.70,0000.41
2023-01-27 00:21:00,,0823.1,5.01,0.00,22.1,20.7,00.0,30.9,23.8,07.8,0000.0,0003.81,0000.72,0000.41
2023-01-27 00:22:00,,0823.0,4.97,0.00,22.1,20.7,00.0,30.9,23.7,08.1,0000.0,0002.80,0000.71,0000.41
2023-01-27 00:23:00,,0823.0,5.00,0.00,22.1,20.6,00.0,30.9,23.7,08.0,0000.0,0002.88,0000.73,0000.42
2023-01-27 00:24:00,,0823.0,4.97,0.00,22.0,20.5,00.0,30.9,23.6,08.0,0000.0,0002.97,0000.76,0000.43
2023-01-27 00:25:00,,0823.1,5.00,0.00,22.0,20.4,00.0,30.9,23.6,07.8,0000.0,0001.89,0000.75,0000.44
2023-01-27 00:26:00,,0823.0,5.00,0.00,22.0,20.4,00.0,30.9,23.6,08.1,0000.0,0001.93,0000.77,0000.44
2023-01-27 00:27:00,,0823.0,5.00,0.00,22.0,20.4,00.0,30.9,23.6,08.0,0000.0,0001.96,0000.78,0000.44
2023-01-27 00:28:00,,0823.0,4.99,0.00,21.9,20.4,00.0,30.9,23.6,08.2,0000.0,0001.95,0000.79,0000.45
2023-01-27 00:29:00,,0823.0,5.01,0.00,21.9,20.3,00.0,30.9,23.5,08.5,0000.0,0002.01,0000.80,0000.46
2023-01-27 00:30:00,,0822.9,5.00,0.00,21.9,20.2,00.0,30.9,23.5,08.4,0000.0,0002.48,0000.82,0000.46
2023-01-27 00:31:00,,0822.9,5.00,0.00,21.9,20.3,00.0,30.8,23.4,08.3,0000.0,0002.73,0000.79,0000.47
2023-01-27 00:32:00,,0823.0,5.01,0.00,21.9,21.2,00.0,30.8,23.7,08.5,0000.0,0002.83,0000.83,0000.48
2023-01-27 00:33:00,,0823.0,4.99,0.00,22.0,22.2,00.0,30.8,24.0,08.3,0000.0,0003.00,0000.88,0000.50
2023-01-27 00:34:00,,0822.9,5.00,0.00,22.1,22.7,00.0,30.8,24.2,08.1,0000.0,0002.96,0000.90,0000.49
2023-01-27 00:35:00,,0822.9,4.98,0.00,22.2,22.2,00.0,30.9,24.2,07.9,0000.0,0002.93,0000.89,0000.49
2023-01-27 00:36:00,,0822.9,4.99,0.00,22.2,21.7,00.0,30.9,24.0,08.1,0000.0,0002.97,0000.91,0000.51
2023-01-27 00:37:00,,0823.0,5.00,0.00,22.2,21.3,00.0,30.9,23.9,08.1,0000.0,0003.02,0000.94,0000.53
2023-01-27 00:38:00,,0823.2,5.01,0.00,22.1,21.0,00.0,31.0,23.8,08.2,0000.0,0003.10,0000.98,0000.55
2023-01-27 00:39:00,,0823.2,5.00,0.00,22.1,20.8,00.0,31.0,23.7,07.9,0000.0,0003.11,0000.99,0000.56
2023-01-27 00:40:00,,0823.3,5.00,0.00,22.1,20.6,00.0,31.0,23.7,07.9,0000.0,0003.03,0001.00,0000.56
2023-01-27 00:41:00,,0823.1,5.00,0.00,22.0,20.4,00.0,31.0,23.6,08.3,0000.0,0002.89,0001.03,0000.56
2023-01-27 00:42:00,,0823.1,5.00,0.00,22.0,20.3,00.0,30.9,23.5,08.4,0000.0,0003.08,0001.10,0000.57
2023-01-27 00:43:00,,0823.2,5.00,0.00,21.9,20.2,00.0,30.9,23.5,08.5,0000.0,0003.12,0001.13,0000.59
2023-01-27 00:44:00,,0823.1,5.01,0.00,21.9,20.2,00.0,30.9,23.5,08.2,0000.0,0003.08,0001.12,0000.60
2023-01-27 00:45:00,,0823.1,4.99,0.00,21.9,20.1,00.0,30.9,23.4,08.1,0000.0,0003.05,0001.10,0000.61
2023-01-27 00:46:00,,0823.1,5.01,0.00,21.8,20.0,00.0,30.9,23.3,08.1,0000.0,0003.13,0001.15,0000.61
2023-01-27 00:47:00,,0823.3,5.01,0.00,21.8,20.5,00.0,30.8,23.5,08.2,0000.0,0003.19,0001.17,0000.62
2023-01-27 00:48:00,,0823.4,4.98,0.00,21.9,21.7,00.0,30.8,23.8,08.5,0000.0,0003.09,0001.13,0000.60
2023-01-27 00:49:00,,0823.3,5.00,0.00,22.1,22.7,00.0,30.8,24.1,08.2,0000.0,0002.97,0001.09,0000.58
2023-01-27 00:50:00,,0823.3,4.99,0.00,22.1,22.4,00.0,30.9,24.1,08.0,0000.0,0002.89,0001.07,0000.58
2023-01-27 00:51:00,,0823.3,5.01,0.00,22.1,21.8,00.0,30.9,24.0,07.8,0000.0,0002.93,0001.08,0000.58
2023-01-27 00:52:00,,0823.3,5.01,0.00,22.1,21.4,00.0,30.9,23.9,07.8,0000.0,0002.81,0001.04,0000.58
2023-01-27 00:53:00,,0823.4,5.00,0.00,22.1,21.2,00.0,31.0,23.9,07.9,0000.0,0001.96,0000.97,0000.57
2023-01-27 00:54:00,,0823.3,5.02,0.00,22.1,20.9,00.0,31.0,23.8,07.9,0000.0,0001.83,0000.90,0000.55
2023-01-27 00:55:00,,0823.4,4.98,0.00,22.1,20.8,00.0,31.0,23.8,08.2,0000.0,0001.77,0000.88,0000.54
2023-01-27 00:56:00,,0823.3,5.00,0.00,22.1,20.7,00.0,31.0,23.8,08.1,0000.0,0001.66,0000.86,0000.54
2023-01-27 00:57:00,,0823.2,5.01,0.00,22.0,20.5,00.0,31.0,23.7,08.0,0000.0,0001.61,0000.84,0000.54
2023-01-27 00:58:00,,0823.2,5.00,0.00,22.0,20.4,00.0,30.9,23.6,08.2,0000.0,0001.68,0000.88,0000.54
2023-01-27 00:59:00,,0823.1,5.00,0.00,22.0,20.2,00.0,30.9,23.5,08.3,0000.0,0002.52,0000.96,0000.55
